Location: ??????
(33.3472°N, 35.4764°E)
Time: 16:12:23
(UTC+00:00)

Cosmos 1500 Rocket - Pass Details

Date: 21 August 2019
Orbit: 602 x 632 km, 82.5° (Epoch: 16 September)

Event Time Altitude Azimuth Distance (km) Brightness Sun altitude
Rises 01:58:14 0° 354° (N) 2,858 7.2 -13.8°
Reaches altitude 10° 02:00:28 10° 356° (N) 1,951 6.4 -13.4°
Maximum altitude 02:04:46 81° 83° (E) 614 3.6 -12.6°
Drops below altitude 10° 02:09:05 10° 172° (S) 1,944 6.0 -11.7°
Sets 02:11:17 0° 173° (S) 2,847 6.8 -11.3°
